Flag for Germany Weather past 2 weeks in Lübeck, Schleswig-Holstein, Germany

Now
54 °F

Partly sunny.


Feels Like: 52 °F
Forecast: 45 / 60 °F
Wind: 7 mph from West

Location: Luebeck-Blankensee

Current Time: May 27, 2015 at 3:08:49 PM

Latest Report: May 27, 2015 at 2:20 PM


Visibility: N/A

Pressure: 30.15 "Hg

Humidity: 67%

Dew point: 43 °F

Location of LübeckLocation

Historic Weather in Lübeck — Graph

°F

Lübeck temperature yesterday

Maximum temperature yesterday: 59 °F (at 3:50 PM)
Minimum temperature yesterday: 48 °F (at 6:50 AM)
Average temperature yesterday: 54 °F

Past Weeks' High & Low Weather Summary

 TemperatureHumidityPressure
High72 °F (May 12, 1:50 PM)100% (May 19, 6:50 AM)30.30 "Hg (May 19, 6:50 AM)
Low41 °F (May 24, 6:20 AM)39% (May 13, 4:20 PM)29.56 "Hg (May 19, 6:20 AM)
Average54 °F68%30.00 "Hg
* Reported May 12 1:20 PM — May 27 1:50 PM, Lübeck, Weather by CustomWeather, © 2015

Note: Actual official high and low records may vary slightly from our data, if they occured in-between our weather recording intervals... More about our weather records

Advertising

Lübeck weather history for previous 24 hours

 ConditionsComfort  
Time TempWeatherWind HumidityBarometerVisibility
1:50 PM
Wed, May 27
54 °FPartly sunny.5 mph63%30.15 "HgN/A
1:20 PM54 °FPartly sunny.6 mph63%30.15 "HgN/A
12:50 PM52 °FBroken clouds.8 mph67%30.15 "HgN/A
12:20 PM54 °FPartly sunny.8 mph67%30.15 "HgN/A
11:50 AM52 °FPartly sunny.7 mph72%30.15 "HgN/A
11:20 AM52 °FPartly sunny.6 mph67%30.15 "HgN/A
10:50 AM52 °FPartly sunny.8 mph72%30.15 "HgN/A
10:20 AM50 °FPartly sunny.6 mph71%30.15 "HgN/A
9:50 AM52 °FPartly sunny.7 mph67%30.15 "HgN/A
9:20 AM50 °FBroken clouds.8 mph76%30.15 "HgN/A
8:50 AM50 °FPartly sunny.8 mph71%30.12 "HgN/A
8:20 AM50 °FPartly sunny.8 mph76%30.12 "HgN/A
7:50 AM50 °FPartly sunny.7 mph76%30.12 "HgN/A
7:20 AM48 °FBroken clouds.6 mph82%30.12 "HgN/A
6:50 AM48 °FPartly sunny.5 mph87%30.12 "HgN/A
9:50 PM
Tue, May 26
50 °FPassing clouds.8 mph71%30.09 "HgN/A
9:20 PM50 °FPassing clouds.7 mph71%30.09 "HgN/A
8:50 PM54 °FPassing clouds.6 mph63%30.09 "HgN/A
8:20 PM54 °FScattered clouds.6 mph63%30.09 "HgN/A
7:50 PM54 °FScattered clouds.7 mph58%30.07 "HgN/A
7:20 PM55 °FScattered clouds.7 mph55%30.07 "HgN/A
6:50 PM55 °FScattered clouds.7 mph55%30.07 "HgN/A
6:20 PM57 °FPassing clouds.7 mph51%30.07 "HgN/A
5:50 PM57 °FScattered clouds.13 mph48%30.04 "HgN/A
5:20 PM59 °FScattered clouds.9 mph55%30.04 "HgN/A
4:50 PM59 °FScattered clouds.12 mph51%30.04 "HgN/A
4:20 PM55 °FScattered clouds.9 mph59%30.04 "HgN/A
3:50 PM59 °FScattered clouds.9 mph48%30.04 "HgN/A
3:20 PM55 °FScattered clouds.9 mph59%30.04 "HgN/A
Weather by CustomWeather, © 2015

See weather overviewHow to use our weather pages